EW4196 Weather Reports


Display with metric or nautical units.
time (UTC)temp
F
wind
direction
speed
MPH
gust
MPH
rain 1hr
in
rain 24hr
in
rain mn
in
humidity
%
barometer
mb
20260505101559 67 95 0.0 4.0 0.00 0.00 0.00 80 1000.7
20260505100100 67 91 1.0 5.0 0.00 0.00 0.00 79 1000.6
20260505094555 67 104 2.0 7.0 0.00 0.00 0.00 78 1000.4
20260505093053 68 93 0.0 8.0 0.00 0.00 0.00 77 1000.5
20260505091550 69 91 2.0 7.0 0.00 0.00 0.00 76 1000.4
20260505090059 69 91 1.0 6.0 0.00 0.00 0.00 75 1000.5
20260505084551 69 104 2.0 7.0 0.00 0.00 0.00 75 1000.6
20260505083055 69 101 2.0 5.0 0.00 0.00 0.00 75 1000.5
20260505081547 69 96 1.0 4.0 0.00 0.00 0.00 74 1000.8
20260505080046 69 97 1.0 6.0 0.00 0.00 0.00 74 1000.8
20260505074542 69 98 0.0 5.0 0.00 0.00 0.00 73 1001.0
20260505073041 69 96 0.0 2.0 0.00 0.00 0.00 73 1001.2
20260505071540 70 171 0.0 3.0 0.00 0.00 0.00 73 1001.5
20260505070044 70 173 0.0 0.0 0.00 0.00 0.00 73 1001.6
20260505064538 69 176 0.0 0.0 0.00 0.00 0.00 73 1001.8
20260505063040 69 175 0.0 0.0 0.00 0.00 0.00 74 1001.9
20260505061540 70 176 0.0 3.0 0.00 0.00 0.00 72 1001.6
20260505060036 70 96 0.0 4.0 0.00 0.00 0.00 72 1000.9
20260505054538 70 108 1.0 6.0 0.00 0.00 0.00 71 1001.0
20260505053040 70 103 0.0 6.0 0.00 0.00 0.00 70 1001.1
20260505051531 70 95 1.0 5.0 0.00 0.00 0.00 70 1001.5
20260505041524 71 95 3.0 13.0 0.00 0.00 0.00 66 1001.1
20260505040022 71 97 2.0 9.0 0.00 0.00 0.00 66 1001.4
20260505034521 70 98 3.0 6.0 0.00 0.00 0.00 66 1001.6
20260505033021 71 134 2.0 9.0 0.00 0.00 0.00 65 1001.8
20260505031519 71 91 3.0 9.0 0.00 0.00 0.00 64 1002.1
20260505030025 72 102 4.0 11.0 0.00 0.00 0.00 62 1002.1
20260505024517 72 94 2.0 8.0 0.00 0.00 0.00 62 1002.3
20260505023017 72 142 1.0 6.0 0.00 0.00 0.00 62 1002.3
20260505021516 72 101 2.0 8.0 0.00 0.00 0.00 61 1002.3
20260505020015 73 95 3.0 9.0 0.00 0.00 0.00 60 1002.3
20260505014516 73 93 4.0 10.0 0.00 0.00 0.00 60 1002.1
20260505013014 74 104 3.0 8.0 0.00 0.00 0.00 60 1002.2
20260505011518 74 95 1.0 5.0 0.00 0.00 0.00 59 1002.1
20260505010012 75 97 2.0 6.0 0.00 0.00 0.00 59 1002.0
20260505004528 76 98 0.0 3.0 0.00 0.00 0.00 57 1002.1
20260505003012 76 96 1.0 5.0 0.00 0.00 0.00 56 1002.1
20260505001510 77 141 2.0 6.0 0.00 0.00 0.00 55 1002.2
20260505000013 77 127 1.0 7.0 0.00 0.00 0.00 54 1002.5
20260504234508 78 133 1.0 10.0 0.00 0.00 0.00 54 1002.4
20260504233008 78 123 1.0 8.0 0.00 0.00 0.00 54 1002.4
20260504231521 79 97 3.0 11.0 0.00 0.00 0.00 53 1002.5
20260504230010 79 101 1.0 5.0 0.00 0.00 0.00 52 1002.5
20260504224506 80 127 1.0 6.0 0.00 0.00 0.00 51 1002.5
20260504223005 80 134 0.0 5.0 0.00 0.00 0.00 52 1002.4
20260504221504 80 127 2.0 8.0 0.00 0.00 0.00 52 1002.3
20260504220003 80 127 1.0 11.0 0.00 0.00 0.00 50 1002.4
20260504214501 81 134 0.0 8.0 0.00 0.00 0.00 49 1002.6
20260504213105 81 129 1.0 7.0 0.00 0.00 0.00 49 1002.5
20260504211605 81 131 2.0 5.0 0.00 0.00 0.00 49 1002.7
20260504210104 81 124 3.0 9.0 0.00 0.00 0.00 48 1002.8
20260504204636 82 124 2.0 13.0 0.00 0.00 0.00 47 1003.0
20260504203054 82 130 3.0 10.0 0.00 0.00 0.00 47 1003.4
20260504201550 82 139 2.0 6.0 0.00 0.00 0.00 47 1003.5
20260504200054 82 132 1.0 7.0 0.00 0.00 0.00 48 1003.7
20260504194552 82 108 2.0 7.0 0.00 0.00 0.00 47 1004.0
20260504193047 82 134 2.0 16.0 0.00 0.00 0.00 47 1004.2
20260504191546 82 124 2.0 7.0 0.00 0.00 0.00 46 1004.1
20260504190053 82 133 2.0 6.0 0.00 0.00 0.00 47 1004.3
20260504184553 82 131 2.0 12.0 0.00 0.00 0.00 47 1004.6
20260504183038 82 130 2.0 11.0 0.00 0.00 0.00 47 1004.8
20260504181538 82 96 2.0 9.0 0.00 0.00 0.00 47 1004.9
20260504180033 82 141 1.0 7.0 0.00 0.00 0.00 47 1005.0
20260504174529 81 130 2.0 7.0 0.00 0.00 0.00 48 1005.3
20260504173028 81 115 3.0 7.0 0.00 0.00 0.00 47 1005.6
20260504171537 80 124 2.0 9.0 0.00 0.00 0.00 46 1005.7